Wind_Speed
17 15 16 15 14 14 12 13 13 14 14 15 14 14 14 14 9 7 6 4 3 14 6 16 15 15 10 1 6 2 4 9 16 8 9 11 5 2 1 7 9 7 8 10 14
16 16 15 14 14 14 13 12 13 13 14 15 15 14 13 12 10 7 11 9 9 14 10 8 10 14 5 6 3 5 4 8 12 7 15 11 10 7 6 6 6 9 12 13 15
16 16 14 15 14 14 13 13 12 12 13 15 16 16 13 9 7 5 15 11 6 11 17 16 18 12 8 4 1 3 5 10 2 13 12 1 10 9 10 7 8 6 12 6 15
16 15 15 14 14 13 14 13 12 12 13 15 16 17 12 7 3 6 10 8 9 11 16 6 10 10 11 10 5 2 11 10 7 6 1 4 3 5 3 7 9 7 13 7 9
15 15 14 14 13 14 14 13 13 13 14 15 16 15 11 4 6 6 12 4 1 13 15 10 8 6 10 9 10 9 7 8 8 7 6 11 5 5 10 9 8 6 11 10 7
14 15 15 14 13 13 14 13 13 12 13 14 15 14 9 8 9 7 7 5 8 12 12 6 5 8 5 14 15 12 9 13 7 4 5 7 7 1 13 9 7 5 8 9 10
13 14 14 14 13 13 13 13 12 11 12 12 13 10 8 7 10 9 5 4 7 4 6 6 10 6 11 4 14 15 12 12 11 16 4 5 8 6 3 12 9 7 6 9 7
14 14 14 13 13 13 13 12 10 11 11 9 8 9 3 6 7 13 11 6 1 7 6 8 9 5 5 4 3 13 11 3 6 6 2 4 13 8 9 8 8 10 9 8 9
12 13 13 12 12 12 12 10 7 9 7 6 6 5 3 6 11 11 10 4 13 10 13 6 4 4 4 1 3 6 4 9 5 10 4 8 5 9 16 11 10 9 8 9 9
11 12 12 11 11 11 11 7 6 9 5 6 6 1 8 8 8 9 5 3 7 6 6 8 6 5 1 4 8 10 14 13 11 11 10 9 10 10 5 5 4 5 8 8 9
11 12 11 9 10 8 9 5 4 3 11 5 5 5 7 10 3 6 6 7 7 5 4 4 2 5 8 11 5 7 9 11 14 14 12 17 12 11 10 8 7 8 9 9 9
10 10 9 7 7 4 4 2 3 2 2 4 1 5 3 4 4 6 10 0 6 6 8 4 4 8 9 9 8 3 9 11 11 10 12 8 11 12 11 10 11 10 9 9 8
9 9 7 4 1 2 3 5 2 3 3 2 2 3 2 5 4 5 3 3 4 5 4 4 0 8 8 7 7 7 11 6 5 7 4 3 7 11 13 12 9 10 8 7 8
8 7 4 2 1 1 2 2 2 2 2 5 1 3 1 1 3 1 3 1 2 5 5 4 4 6 5 7 7 6 2 7 5 3 3 8 4 8 17 13 12 9 9 9 9
7 5 4 4 2 1 4 2 1 1 1 4 2 1 2 2 5 3 1 3 4 5 2 1 4 5 8 7 6 2 6 7 3 5 6 3 3 7 2 15 15 13 10 10 10
6 4 8 3 1 4 4 4 1 1 1 2 2 1 4 3 4 4 3 3 4 5 2 1 5 4 5 9 2 5 1 3 3 1 1 7 6 5 5 6 5 8 12 12 10
5 11 7 1 1 7 5 3 1 2 1 3 2 1 4 2 4 7 8 6 4 4 4 1 3 2 2 2 2 6 5 2 1 2 5 4 6 9 7 4 2 4 4 4 10
11 11 7 1 6 7 4 2 3 1 4 4 1 5 4 4 4 7 5 9 12 8 4 5 4 8 8 5 4 6 6 3 4 4 4 8 6 5 6 5 6 6 4 4 6
16 8 5 6 6 4 3 3 2 3 5 3 2 5 4 6 3 4 11 12 11 14 5 6 5 4 2 6 2 6 5 4 2 6 1 5 6 7 8 5 2 2 1 5 4
10 6 6 8 6 5 0 1 3 3 3 2 4 6 6 7 4 5 5 7 16 15 8 1 3 6 4 2 3 2 2 2 1 2 3 4 6 5 1 7 7 4 4 2 3
5 3 6 9 6 4 2 1 2 5 5 4 5 5 7 7 9 4 5 9 8 9 10 7 5 3 5 7 7 5 2 4 1 4 2 1 2 5 6 9 8 8 6 6 5
3 2 9 10 3 2 2 3 1 4 6 5 4 8 9 10 10 8 8 9 5 11 8 6 3 5 8 5 8 8 9 6 3 4 3 3 5 2 8 8 6 8 6 6 4
3 3 6 6 2 2 3 3 3 5 6 4 5 6 5 6 5 7 6 5 2 3 4 8 5 1 5 2 5 7 9 13 7 5 4 4 4 4 6 4 4 5 5 7 7
3 3 3 3 3 2 4 5 3 6 5 5 7 7 8 10 10 8 9 8 9 5 13 2 3 7 12 5 5 5 12 15 10 5 6 10 3 6 3 4 6 6 8 2 6
2 2 4 4 5 4 2 1 4 4 5 2 4 10 6 4 9 13 13 12 7 15 4 6 4 6 13 7 5 3 9 16 18 14 10 7 15 13 11 10 4 7 9 5 6
3 3 1 3 4 5 5 6 4 2 2 4 6 6 5 6 9 12 9 7 4 6 6 6 2 4 10 3 3 4 11 12 19 18 17 13 18 10 11 13 14 9 8 6 3
5 4 2 3 4 4 3 2 2 3 1 2 3 5 8 5 6 9 7 7 2 2 4 2 4 6 1 7 4 4 13 15 11 14 15 16 19 12 12 9 7 7 7 7 6
Wind_Direction
342 347 346 351 348 351 353 353 354 349 345 340 339 338 333 325 313 292 305 304 315 337 335 253 287 225 152 203 234 248 207 217 234 189 167 132 107 40 296 94 55 62 66 110 136
341 340 341 345 342 346 348 346 349 344 342 338 339 336 334 331 311 31 344 326 261 328 343 285 277 183 152 152 286 197 206 219 233 6 186 143 143 153 135 132 98 103 91 112 132
340 338 340 336 339 337 342 348 343 338 333 335 337 334 334 329 325 344 346 339 261 323 323 298 269 220 163 124 116 196 226 235 215 75 358 44 177 165 155 137 114 99 114 115 134
336 335 333 327 337 331 336 339 342 333 329 330 332 333 328 320 11 307 353 330 252 301 302 233 286 234 173 164 177 315 245 264 30 60 11 281 120 159 233 114 108 117 122 123 141
333 334 330 324 322 331 330 336 333 328 327 327 333 337 333 55 24 332 348 24 206 296 277 256 224 199 194 167 160 230 289 276 305 132 155 281 285 136 103 112 123 125 129 138 138
331 331 329 323 325 321 327 333 331 326 323 324 330 340 279 45 359 4 354 338 275 262 236 245 306 336 300 169 161 195 230 286 280 253 210 264 167 340 135 139 133 140 128 136 163
328 328 325 321 320 317 321 327 328 332 327 324 327 338 17 14 355 349 353 260 283 301 263 46 349 347 338 217 161 149 190 250 189 239 133 272 249 188 228 152 155 169 127 130 153
325 322 321 322 316 312 315 319 319 329 329 333 341 333 57 10 354 2 356 306 217 43 62 13 348 323 286 342 89 143 190 139 315 195 137 251 246 180 238 160 203 185 173 164 158
323 322 322 323 315 307 311 314 311 328 334 334 314 303 45 1 16 354 346 27 83 57 42 46 14 339 334 216 165 210 156 185 214 249 165 224 227 231 199 206 188 218 214 178 158
324 319 322 322 315 307 316 313 297 329 270 258 323 39 37 2 356 353 334 28 92 64 33 31 360 337 319 218 184 197 215 193 185 201 231 215 250 285 267 156 187 216 255 250 176
316 314 318 320 311 310 330 310 231 189 36 50 22 44 12 353 15 51 343 118 115 59 63 21 311 223 224 216 231 213 213 240 194 169 209 221 212 215 242 169 206 229 235 244 239
317 314 318 314 305 320 326 334 48 20 18 76 88 82 33 301 62 45 5 7 115 107 113 161 243 238 225 227 242 241 223 229 75 164 181 235 223 240 249 216 184 204 233 249 242
306 309 318 305 331 20 338 78 39 22 276 83 95 41 7 348 39 32 356 337 148 157 131 189 312 303 274 241 191 224 218 170 167 184 218 301 284 254 228 240 234 203 196 240 250
303 300 294 134 351 137 110 130 46 37 53 352 11 86 244 298 83 330 341 131 166 153 178 231 343 287 261 224 239 223 14 66 320 157 225 163 270 219 229 224 218 220 199 212 244
294 275 176 161 339 234 112 145 91 243 88 317 56 62 292 326 147 148 264 260 179 152 212 117 311 218 252 222 221 304 125 153 241 260 326 251 264 270 232 218 219 210 211 207 211
276 211 142 143 204 117 137 142 171 240 42 344 338 301 220 175 170 152 219 216 291 178 195 264 289 272 249 311 161 92 253 141 112 354 293 230 214 265 255 236 193 195 202 206 206
205 159 160 178 76 156 153 199 106 31 151 284 312 265 308 199 187 205 198 190 197 153 205 10 295 300 84 288 209 216 177 104 319 217 226 218 223 248 285 349 124 128 26 242 191
161 155 147 151 128 156 206 206 65 230 168 256 266 281 251 187 224 203 248 231 223 260 153 165 252 198 179 213 183 212 213 150 224 208 230 196 238 251 255 28 19 171 156 46 346
141 142 156 182 156 206 243 90 149 148 157 226 201 254 238 203 236 225 230 240 226 220 212 196 241 181 239 185 215 220 225 303 319 248 327 192 253 297 260 170 121 175 160 179 213
147 191 153 180 173 229 263 191 161 160 187 188 256 193 299 188 192 195 230 267 225 226 200 223 242 237 142 45 195 296 19 168 203 215 230 263 252 236 170 178 176 118 106 148 100
151 216 155 162 174 236 147 220 192 183 198 225 263 286 280 275 200 203 267 298 202 210 190 146 234 159 133 207 178 154 147 228 267 249 183 293 268 316 100 86 82 74 60 49 31
210 208 158 161 220 214 218 186 336 209 181 255 275 265 267 290 297 281 222 254 109 320 194 214 278 198 212 182 249 240 198 192 183 183 230 133 273 60 98 91 75 123 122 113 94
202 117 173 195 215 191 135 230 244 207 202 218 246 221 307 297 299 278 338 61 15 159 273 176 213 133 163 247 186 217 223 219 218 354 227 171 248 121 108 95 164 173 165 149 141
159 145 142 207 257 290 174 213 220 197 275 269 275 293 278 271 267 265 266 23 344 271 201 206 291 216 218 149 140 195 208 211 190 205 200 220 279 256 149 181 183 217 258 100 110
215 191 164 181 207 198 109 98 232 213 206 216 258 241 323 288 295 300 331 335 331 357 241 164 230 253 259 212 149 168 231 206 207 213 206 211 231 248 274 286 283 219 233 229 158
197 163 213 93 106 180 151 199 235 192 161 252 259 339 343 297 302 314 328 329 290 342 33 351 268 224 238 196 331 238 235 220 219 218 238 256 260 261 284 297 295 288 292 298 263
198 264 114 142 172 165 202 209 105 70 27 323 14 331 302 337 330 302 298 286 207 198 330 341 4 334 205 166 157 253 225 229 218 222 221 227 239 256 258 261 268 272 257 259 259
Height
819 816 813 810 808 804 800 798 796 794 791 788 785 782 780 777 773 773 771 773 771 771 768 770 769 767 770 775 772 770 784 782 771 764 768 758 771 768 768 774 774 774 780 786 789
818 816 813 810 807 805 801 798 796 794 791 788 784 782 779 776 775 773 776 772 769 773 770 769 767 764 772 777 776 776 781 771 756 766 765 761 769 772 775 780 779 781 785 787 789
817 815 812 810 807 805 801 798 796 794 791 788 784 781 779 777 774 778 776 773 770 773 770 771 766 761 769 776 778 773 776 761 758 764 767 766 767 767 774 783 779 785 786 789 791
816 814 811 809 806 804 801 798 796 793 790 787 784 781 778 777 784 778 776 772 771 771 773 770 768 765 763 775 779 784 774 767 771 770 776 775 764 771 769 778 778 780 783 788 791
815 812 809 807 804 803 800 798 795 793 790 787 784 780 777 774 777 777 775 773 771 772 770 765 762 759 760 764 778 788 783 774 779 775 778 778 775 771 778 776 778 778 781 788 792
813 810 808 806 803 802 800 797 795 792 790 787 784 781 778 779 778 777 776 774 776 775 769 765 764 761 758 760 779 781 787 788 784 775 775 778 778 774 776 777 781 780 783 785 790
811 809 806 804 802 800 799 797 794 791 789 787 785 783 781 783 779 777 777 775 775 772 769 770 770 764 760 760 761 777 794 794 791 787 778 774 783 782 772 775 781 782 782 784 789
809 807 805 803 801 799 797 795 793 791 788 787 785 784 782 783 780 776 774 772 773 773 773 773 771 768 763 755 760 775 789 796 786 780 781 786 794 776 772 778 781 781 783 784 786
807 805 803 801 799 798 796 793 791 789 788 786 785 783 783 782 782 780 777 775 775 775 776 774 773 774 766 768 774 773 788 799 798 791 784 789 790 772 769 775 779 779 778 781 783
804 803 801 799 798 796 794 792 790 788 786 786 785 785 783 784 783 782 780 777 780 777 776 780 781 780 774 778 791 783 783 778 787 790 786 795 789 775 767 771 773 776 777 777 778
802 800 799 798 797 795 793 790 793 790 788 789 790 786 786 785 783 783 781 778 780 781 788 792 792 786 778 773 763 766 772 771 771 775 788 784 778 780 772 775 779 779 778 776 774
800 799 797 796 796 794 794 790 795 797 791 789 788 787 788 786 783 783 783 781 781 790 794 797 788 774 768 765 767 772 774 776 778 778 785 777 779 775 769 768 772 776 776 774 771
798 797 796 795 795 795 794 794 795 795 791 788 789 787 790 788 787 786 782 780 781 785 787 794 787 776 771 768 772 771 777 775 779 776 775 778 785 776 765 764 763 764 766 768 769
796 795 794 795 798 794 795 795 795 794 798 791 786 789 789 787 789 787 785 785 782 785 787 787 783 780 776 775 772 779 762 774 778 781 794 777 803 773 764 762 761 762 763 766 767
793 793 793 794 795 793 796 796 796 796 788 789 787 788 786 786 788 787 785 784 784 786 788 790 786 784 781 774 769 775 763 774 780 784 787 785 800 778 753 764 759 757 759 761 763
791 792 793 795 795 795 795 796 797 798 797 796 785 784 783 784 784 785 784 784 781 780 786 790 787 784 778 771 767 770 775 775 781 790 813 790 791 782 765 754 747 749 751 753 756
788 791 793 794 793 795 795 796 796 788 797 793 785 783 781 780 782 784 783 786 786 796 802 792 786 777 779 782 778 779 785 804 812 809 812 772 785 772 749 745 743 748 749 748 748
788 791 793 795 794 795 796 794 791 780 796 786 784 782 785 776 776 780 779 782 780 777 783 801 793 785 776 781 783 783 785 794 799 803 793 774 787 770 744 742 744 743 745 748 751
788 791 794 795 794 796 795 790 784 785 788 781 779 784 776 771 776 776 778 777 772 773 780 783 784 774 774 771 775 783 792 777 801 787 801 783 768 753 746 745 745 746 747 752 753
786 790 792 793 794 796 792 783 778 775 777 779 780 770 770 768 778 776 771 760 764 760 764 778 786 779 776 776 777 782 779 793 807 814 791 777 771 768 747 750 750 751 754 754 753
785 786 790 792 795 792 797 777 773 773 777 780 774 771 768 766 770 772 770 758 753 754 760 774 783 783 784 781 779 786 790 791 784 787 804 791 775 756 748 753 755 759 759 759 759
781 781 789 792 791 779 779 775 776 772 774 777 775 775 773 768 766 764 766 760 755 758 764 765 783 779 776 775 773 771 778 785 790 786 786 800 785 745 752 753 753 760 760 761 762
775 782 789 790 780 778 773 772 773 772 772 772 772 768 765 769 772 760 758 754 760 765 769 767 784 775 774 781 776 778 775 774 781 787 794 797 782 751 751 752 754 756 754 757 759
769 779 786 787 775 770 767 767 769 771 770 768 768 767 768 768 763 761 759 759 764 761 764 774 769 762 759 759 763 777 769 767 778 786 781 777 765 754 755 755 755 756 755 753 754
765 759 762 778 771 767 769 766 766 769 771 768 769 767 766 770 768 765 763 764 767 774 765 781 775 771 756 751 761 767 765 765 775 776 776 766 763 756 751 749 750 752 752 751 751
758 759 763 764 764 765 773 765 765 764 772 767 768 767 773 776 773 779 778 779 776 782 782 788 771 778 762 762 769 769 761 756 758 762 766 764 758 750 748 748 748 749 748 749 747
752 751 749 765 763 764 763 759 764 773 771 771 776 779 779 778 782 779 781 781 785 788 789 790 785 778 758 766 775 769 764 752 750 751 754 762 751 747 750 747 747 746 745 745 744